MDT,Max TemperatureF,Mean TemperatureF,Min TemperatureF,Max Dew PointF,MeanDew PointF,Min DewpointF,Max Humidity, Mean Humidity, Min Humidity, Max Sea Level PressureIn, Mean Sea Level PressureIn, Min Sea Level PressureIn, Max VisibilityMiles, Mean VisibilityMiles, Min VisibilityMiles, Max Wind SpeedMPH, Mean Wind SpeedMPH, Max Gust SpeedMPH,PrecipitationIn, CloudCover, Events, WindDirDegrees
2011-10-1,82,63,43,38,33,29,65,42,18,30.17,30.11,30.04,10,10,10,21,10,26,0.00,0,,154
2011-10-2,83,64,45,38,36,33,65,42,18,30.14,30.06,29.99,10,10,10,16,7,22,0.00,0,,151
2011-10-3,89,66,42,43,40,36,82,49,16,30.09,30.00,29.94,10,10,10,17,5,23,0.00,0,,125
2011-10-4,89,72,54,43,34,24,57,33,9,30.03,29.92,29.82,10,10,4,35,15,47,0.00,0,,180
2011-10-5,79,68,57,54,43,34,72,50,28,29.89,29.76,29.65,10,9,6,35,23,45,0.00,1,,164
2011-10-6,84,71,58,60,54,44,90,58,26,29.64,29.54,29.39,10,7,1,45,24,61,0.29,5,Rain-Thunderstorm,173
2011-10-7,77,63,48,57,39,28,78,49,19,29.85,29.76,29.61,10,10,10,26,11,33,0.01,2,Rain-Thunderstorm,202
2011-10-8,63,53,42,55,50,41,100,80,60,30.04,29.87,29.77,10,8,2,33,14,43,0.61,6,Rain-Thunderstorm,116
2011-10-9,55,49,43,47,44,41,96,81,66,30.10,30.05,30.00,10,10,10,14,4,17,0.00,7,,288
2011-10-10,68,53,38,46,40,31,100,63,26,30.05,29.97,29.87,10,10,10,14,5,16,0.00,1,,188
2011-10-11,69,57,44,50,46,40,100,67,33,29.86,29.80,29.70,10,5,0,16,6,21,T,3,Fog,223
2011-10-12,65,53,40,43,35,29,71,49,26,30.05,29.93,29.75,10,10,10,33,17,44,0.00,0,,313
2011-10-13,71,54,36,37,32,29,76,48,20,30.06,29.98,29.89,10,10,10,18,9,24,0.00,0,,307
2011-10-14,64,52,40,38,32,26,76,51,25,30.13,30.07,29.99,10,10,9,13,4,18,0.00,1,,16
2011-10-15,85,62,39,41,35,28,79,48,16,30.07,29.92,29.78,10,8,2,26,10,38,0.00,0,,236
2011-10-16,58,50,41,40,36,34,79,61,43,30.19,30.07,29.86,10,10,10,21,7,25,0.00,0,,40
2011-10-17,51,42,33,45,38,31,96,76,56,30.26,30.08,29.91,10,10,6,26,11,30,T,6,Rain,298
2011-10-18,58,47,35,32,28,21,89,57,24,30.36,30.27,30.21,10,10,10,28,14,33,0.00,0,,324
2011-10-19,59,45,30,31,27,24,85,58,30,30.29,30.17,30.06,10,10,10,16,6,20,0.00,0,,334
2011-10-20,65,46,27,33,30,24,92,62,32,30.09,30.05,29.99,10,10,8,15,6,18,0.00,0,,148
2011-10-21,73,54,35,37,34,30,82,54,26,30.17,30.10,30.05,10,10,5,12,4,14,0.00,0,,285
2011-10-22,69,56,42,41,39,35,76,56,35,30.11,30.06,30.02,10,10,7,15,5,17,0.00,2,,330
2011-10-23,73,55,37,36,34,31,85,54,22,30.11,30.05,30.02,10,9,7,24,9,29,0.00,0,,287
2011-10-24,76,57,37,38,34,30,79,51,23,30.06,29.91,29.71,10,10,10,20,5,25,0.00,0,,178
2011-10-25,61,50,39,39,35,30,92,65,38,30.21,29.97,29.69,10,10,5,30,18,38,0.22,2,Rain,349
2011-10-26,39,35,31,37,34,29,92,86,79,30.31,30.23,30.18,10,9,5,21,11,25,0.13,7,Rain-Snow,342
2011-10-27,48,36,23,30,26,21,92,67,42,30.27,30.22,30.09,10,10,10,14,9,20,0.00,0,,270
2011-10-28,54,38,22,30,25,20,92,62,32,30.36,30.27,30.17,10,10,10,10,5,13,0.00,0,,283
2011-10-29,68,47,26,35,27,19,92,55,18,30.15,29.98,29.82,10,10,9,30,12,37,0.00,1,,272
2011-10-30,58,45,31,31,28,25,82,56,30,30.23,30.15,30.07,10,10,10,15,8,22,0.00,1,,290
2011-10-31,76,52,27,38,32,26,92,56,19,30.12,29.98,29.85,10,10,5,10,3,13,0.00,0,,298